Estación Meteorológica Peña el Pijo (Robertgarden) [ 09/30/20 11:24:02 CEST ]

Fecha Hora Presion(HPa) Temp (°C) Humedad % Rocio (°C) Viento ( m/s) Direccion Lluvia 1Hora(mm) Lluvia 24H(mm) LLuvia Total(mm)
2020-Mar-28 01:09:19 1003.000 - - - - N     39.88
2020-Mar-28 02:10:48 1003.100 - - - - N     39.88
2020-Mar-28 03:09:16 1003.100 - - - - N     39.88
2020-Mar-28 04:09:14 1003.100 - - - - N     39.88
2020-Mar-28 05:09:08 1003.400 - - - - N     39.88
2020-Mar-28 06:09:03 1003.800 - - - - N     39.88
2020-Mar-28 07:09:35 1004.000 - - - - N     39.88
2020-Mar-28 08:09:20 1004.800 - - - - N     39.88
2020-Mar-28 09:08:51 1004.900 - - - - N     39.88
2020-Mar-28 10:08:49 1005.800 - - - - N     39.88
2020-Mar-28 11:09:22 1005.900 - - - - N     39.88
2020-Mar-28 12:09:48 1006.200 - - - - N     39.88
2020-Mar-28 13:09:24 1005.700 - - - - N     39.88
2020-Mar-28 14:09:20 1005.100 - - - - N     39.88
2020-Mar-28 15:09:24 1005.000 - - - - N     39.88
2020-Mar-28 16:08:58 1004.800 - - - - N     39.88
2020-Mar-28 17:09:12 1004.900 - - - - N     39.88
2020-Mar-28 18:09:34 1005.300 - - - - N     39.88
2020-Mar-28 19:08:55 1005.900 - - - - N     39.88
2020-Mar-28 20:09:24 1006.600 - - - - N     39.88
2020-Mar-28 21:09:24 1007.600 - - - - N     39.88
2020-Mar-28 22:09:14 1007.900 - - - - N     39.88
2020-Mar-28 23:09:23 1007.900 - - - - N     39.88

Temperatura Máxima:    Temperatura Mínima:
Presión Máxima:1007.900 Hpa    Presión Mínima:1003.000 Hpa


Volver